Home   Weather   Chalon-sur-Saône   Past weeks

Flag for France Past Weather in Chalon-sur-Saône, Burgundy, France — Yesterday and Last 2 Weeks

43 °F

Passing clouds.

Feels Like: 40 °F
Forecast: 55 / 69 °F
Wind: 5 mph from East

Location: Dole Tavaux

Current Time: Oct 23, 2016 at 3:31:27 AM

Latest Report: Oct 23, 2016 at 3:00 AM

Visibility: N/A

Pressure: 29.86 "Hg

Humidity: 93%

Dew Point: 41 °F

Location of Chalon-sur-SaôneLocation

Past Weather in Chalon-sur-Saône — Graph


Chalon-sur-Saône Temperature Yesterday

Maximum temperature yesterday: 57 °F (at 3:30 PM)
Minimum temperature yesterday: 34 °F (at 5:00 AM)
Average temperature yesterday: 44 °F

High & Low Weather Summary for the Past Weeks

High66 °F (Oct 16, 2:30 PM)100% (Oct 9, 3:00 AM)30.30 "Hg (Oct 9, 3:00 AM)
Low34 °F (Oct 10, 2:00 AM)44% (Oct 11, 5:00 PM)29.59 "Hg (Oct 14, 8:30 AM)
Average49 °F85%30.04 "Hg
* Reported Oct 8 4:30 PM — Oct 23 2:30 AM, Chalon-sur-Saône, Weather by CustomWeather, © 2016

Note: Actual official high and low records may vary slightly from our data, if they occured in-between our weather recording intervals... More about our weather records


Chalon-sur-Saône Weather History for the Previous 24 Hours

Scroll right to see more
Time TempWeatherWind HumidityBarometerVisibility
2:30 AM
Sun, Oct 23
41 °FPassing clouds.5 mph100%29.86 "HgN/A
2:00 AM41 °FClear.5 mph93%29.86 "Hg10 mi
1:30 AM41 °FClear.7 mph93%29.86 "Hg10 mi
1:00 AM41 °FClear.5 mph93%29.86 "Hg10 mi
12:30 AM41 °FClear.5 mph93%29.89 "Hg10 mi
12:00 AM41 °FClear.3 mph93%29.89 "Hg10 mi
11:30 PM
Sat, Oct 22
43 °FClear.2 mph87%29.89 "Hg10 mi
11:00 PM45 °FClear.3 mph87%29.89 "Hg10 mi
10:30 PM43 °FClear.5 mph93%29.89 "Hg10 mi
10:00 PM45 °FClear.6 mph87%29.89 "Hg10 mi
9:30 PM45 °FClear.6 mph87%29.89 "Hg10 mi
9:00 PM45 °FClear.6 mph87%29.89 "Hg10 mi
8:30 PM46 °FClear.6 mph82%29.89 "Hg10 mi
8:00 PM48 °FClear.7 mph76%29.92 "Hg10 mi
7:30 PM48 °FSunny.6 mph82%29.92 "Hg10 mi
7:00 PM50 °FSunny.5 mph76%29.92 "Hg10 mi
6:30 PM52 °FSunny.7 mph72%29.92 "Hg10 mi
6:00 PM54 °FSunny.8 mph67%29.89 "Hg10 mi
5:30 PM55 °FSunny.8 mph55%29.92 "Hg10 mi
5:00 PM57 °FPassing clouds.8 mph55%29.92 "HgN/A
4:30 PM57 °FPassing clouds.8 mph55%29.92 "HgN/A
4:00 PM57 °FPassing clouds.7 mph51%29.92 "HgN/A
3:30 PM57 °FPassing clouds.7 mph55%29.92 "HgN/A
3:00 PM55 °FPassing clouds.6 mph59%29.92 "HgN/A
2:30 PM55 °FPassing clouds.5 mph59%29.95 "HgN/A
2:00 PM55 °FPassing clouds.3 mph59%29.95 "HgN/A
1:30 PM54 °FPassing clouds.3 mph72%29.95 "HgN/A
1:00 PM52 °FSunny.3 mph77%29.95 "Hg10 mi
12:30 PM50 °FSunny.3 mph82%29.98 "Hg10 mi
12:00 PM48 °FSunny.2 mph82%29.98 "Hg10 mi
11:30 AM46 °FPassing clouds.3 mph82%29.98 "HgN/A
11:00 AM45 °FSunny.1 mph87%29.98 "Hg10 mi
10:30 AM41 °FSunny.2 mph100%29.98 "Hg10 mi
10:00 AM39 °FSunny.1 mph100%29.98 "Hg10 mi
9:30 AM37 °FSunny.No wind100%29.98 "Hg10 mi
9:00 AM36 °FClear.No wind100%29.98 "Hg10 mi
8:30 AM34 °FClear.No wind100%29.98 "Hg10 mi
8:00 AM34 °FClear.3 mph100%29.98 "Hg4 mi
7:30 AM34 °FClear.5 mph100%29.98 "Hg5 mi
7:00 AM34 °FClear.5 mph100%29.98 "Hg4 mi
6:30 AM34 °FLight fog.3 mph100%29.98 "Hg1 mi
6:00 AM34 °FFog.5 mph100%29.98 "Hg3 mi
5:30 AM34 °FFog.6 mph100%29.98 "Hg3 mi
5:00 AM34 °FFog.3 mph100%29.98 "Hg3 mi
4:30 AM36 °FLight fog.3 mph100%30.01 "Hg1 mi
4:00 AM36 °FLight fog.5 mph100%30.01 "Hg1 mi
3:30 AM36 °FFog.5 mph100%30.01 "Hg1 mi
3:00 AM36 °FLight fog.5 mph100%30.01 "Hg1 mi
Weather by CustomWeather, © 2016

See weather overviewHow to use our weather pages